sat.trackr.live / text

‹ back to catalog

STARLINK-11164 [DTC]

NORAD 60120 · 2024-118H

PAYLOAD ACTIVE UNKNOWN

§ Identity

Operator
Country
US
Launch date
2024-06-24
Launch site
AFWTR
Launch vehicle
Mass (kg)
RCS (m²)

Purposes: comms

External: N2YO · Heavens-Above · Gunter

§ Orbital elements

Epoch: 2026-09-21T11:13:49.410336Z

Period
91.74 min
Inclination
53.1600°
Eccentricity
0.0001003
Mean motion
15.69694099 rev/d
Perigee alt
359.1 km
Apogee alt
360.4 km
Semi-major
6,737.9 km
B*
-3.0162e-6
RAAN
336.0609°
Arg perigee
81.0322°
Mean anomaly
279.0810°
Rev number
12,874

§ Raw data

STARLINK-11164 [DTC]1 60120U 24118H   26264.46793299 -.00000953  00000+0 -30162-5 0  99992 60120  53.1600 336.0609 0001003  81.0322 279.0810 15.69694099128740

JSON: /api/v1/satellites/60120 · /tle

For live sub-satellite position, see the globe view (requires WebGL).

§ Visibility from observer

Set your observer location to see the next 7 days of passes ≥ 10°. The values pass through the URL so the page stays shareable.

No JS? Fill the form by hand. The geolocation button needs JavaScript.